GW1804 Weather Reports


time (UTC)temp
C
wind
direction
speed
KPH
gust
KPH
rain 1hr
cm
rain 24hr
cm
rain mn
cm
humidity
%
barometer
mb
20260502202038 18 302 8.0 16.1 0.00 0.00 0.00 83 1012.9
20260502201552 18 263 4.8 12.9 0.00 0.00 0.00 84 1012.8
20260502201035 18 286 4.8 12.9 0.00 0.00 0.00 85 1012.8
20260502200535 18 295 6.4 12.9 0.00 0.00 0.00 85 1012.9
20260502200126 17 304 3.2 14.5 0.00 0.00 0.00 86 1013.0
20260502195536 17 310 6.4 14.5 0.00 0.00 0.00 85 1013.2
20260502195038 17 308 6.4 19.3 0.00 0.00 0.00 85 1013.3
20260502194542 17 300 6.4 19.3 0.00 0.00 0.00 85 1013.3
20260502194034 17 281 8.0 19.3 0.00 0.00 0.00 85 1013.4
20260502193538 17 314 6.4 14.5 0.00 0.00 0.00 85 1013.3
20260502193050 17 262 4.8 14.5 0.00 0.00 0.00 85 1013.3
20260502192537 17 300 4.8 14.5 0.00 0.00 0.00 86 1013.3
20260502192034 17 360 6.4 16.1 0.00 0.00 0.00 86 1013.5
20260502191543 17 292 6.4 16.1 0.00 0.00 0.00 85 1013.5
20260502191034 17 315 8.0 14.5 0.00 0.00 0.00 86 1013.7
20260502190535 18 254 8.0 14.5 0.00 0.00 0.00 86 1013.8
20260502190101 18 287 8.0 14.5 0.00 0.00 0.00 86 1014.0
20260502185533 17 294 6.4 12.9 0.00 0.00 0.00 86 1013.8
20260502185032 17 272 4.8 11.3 0.00 0.00 0.00 87 1013.9
20260502184558 17 299 6.4 11.3 0.00 0.00 0.00 86 1013.9
20260502184034 17 280 4.8 11.3 0.00 0.00 0.00 87 1013.9
20260502183532 17 272 3.2 12.9 0.00 0.00 0.00 86 1013.9
20260502183051 17 264 6.4 12.9 0.00 0.00 0.00 86 1014.0
20260502182531 17 298 4.8 12.9 0.00 0.00 0.00 86 1014.0
20260502182035 17 263 4.8 14.5 0.00 0.00 0.00 86 1014.1
20260502181552 17 254 4.8 14.5 0.00 0.00 0.00 86 1014.3
20260502181035 17 273 8.0 14.5 0.00 0.00 0.00 86 1014.2
20260502180535 17 266 4.8 11.3 0.00 0.00 0.00 86 1014.2
20260502180112 17 311 3.2 8.0 0.00 0.00 0.00 86 1014.1
20260502164032 16 0 0.0 4.8 0.00 0.00 0.00 87 1014.6
20260502163535 16 352 0.0 4.8 0.00 0.00 0.00 87 1014.6
20260502163048 16 310 0.0 4.8 0.00 0.00 0.00 88 1014.8
20260502162533 16 26 0.0 3.2 0.00 0.00 0.00 88 1014.7
20260502162035 16 0 0.0 3.2 0.00 0.00 0.00 88 1014.6
20260502161545 16 0 0.0 4.8 0.00 0.00 0.00 88 1014.5
20260502161033 16 0 1.6 8.0 0.00 0.00 0.00 88 1014.5
20260502160531 16 294 1.6 8.0 0.00 0.00 0.00 88 1014.7
20260502152030 16 0 0.0 3.2 0.00 0.00 0.00 89 1014.6
20260502151556 16 0 0.0 0.0 0.00 0.00 0.00 89 1014.6
20260502151034 16 0 0.0 0.0 0.00 0.00 0.00 89 1014.4
20260502150534 16 0 0.0 0.0 0.00 0.00 0.00 89 1014.4
20260502130532 16 0 0.0 0.0 0.00 0.00 0.00 88 1013.7
20260502123534 16 0 0.0 1.6 0.00 0.00 0.00 88 1013.7
20260502123047 16 0 0.0 3.2 0.00 0.00 0.00 88 1013.7
20260502122535 16 0 0.0 3.2 0.00 0.00 0.00 88 1013.6
20260502122032 16 0 0.0 1.6 0.00 0.00 0.00 88 1013.5
20260502121600 16 0 0.0 3.2 0.00 0.00 0.00 88 1013.5
20260502121037 16 0 0.0 3.2 0.00 0.00 0.00 88 1013.6
20260502120532 16 0 0.0 1.6 0.00 0.00 0.00 88 1013.5
20260502115534 16 0 0.0 1.6 0.00 0.00 0.00 88 1013.4
20260502115031 16 0 0.0 0.0 0.00 0.00 0.00 88 1013.4
20260502114550 16 0 0.0 0.0 0.00 0.00 0.00 88 1013.3
20260502114035 16 0 0.0 0.0 0.00 0.00 0.00 88 1013.3
20260502113533 16 0 0.0 3.2 0.00 0.00 0.00 88 1013.3
20260502113045 16 0 0.0 3.2 0.00 0.00 0.00 88 1013.2
20260502112531 16 0 0.0 1.6 0.00 0.00 0.00 88 1013.3
20260502112031 16 0 0.0 1.6 0.00 0.00 0.00 88 1013.2
20260502111556 16 0 0.0 0.0 0.00 0.00 0.00 88 1013.3
20260502111035 16 0 0.0 0.0 0.00 0.00 0.00 88 1013.3
20260502110532 16 0 0.0 1.6 0.00 0.00 0.00 88 1013.4
20260502110050 16 0 0.0 1.6 0.00 0.00 0.00 88 1013.3
20260502105538 16 0 0.0 8.0 0.00 0.00 0.00 88 1013.2
20260502105034 16 0 0.0 8.0 0.00 0.00 0.00 88 1013.2
20260502104553 16 212 1.6 8.0 0.00 0.00 0.00 88 1013.2
20260502104037 16 260 0.0 3.2 0.00 0.00 0.00 88 1013.2
20260502103531 16 0 0.0 1.6 0.00 0.00 0.00 88 1013.2
20260502103053 16 0 0.0 1.6 0.00 0.00 0.00 88 1013.2
20260502102537 16 0 0.0 1.6 0.00 0.00 0.00 88 1013.2
20260502102035 16 0 0.0 0.0 0.00 0.00 0.00 88 1013.2
20260502101605 16 0 0.0 1.6 0.00 0.00 0.00 88 1013.2
20260502101035 16 0 0.0 1.6 0.00 0.00 0.00 88 1013.1
20260502100535 16 0 0.0 4.8 0.00 0.00 0.00 88 1013.1
20260502100116 16 0 0.0 4.8 0.00 0.00 0.00 88 1013.0
20260502091034 16 0 0.0 3.2 0.00 0.00 0.00 87 1013.2
20260502090534 16 210 0.0 1.6 0.00 0.00 0.00 87 1013.1
20260502071034 16 277 0.0 3.2 0.00 0.00 0.00 86 1013.8
20260502070535 16 0 0.0 3.2 0.00 0.00 0.00 86 1013.9
20260502070054 16 0 0.0 3.2 0.00 0.00 0.00 86 1014.0
20260502065531 16 0 0.0 3.2 0.00 0.00 0.00 86 1013.9
20260502065033 16 327 0.0 3.2 0.00 0.00 0.00 86 1014.0
20260502064552 16 0 0.0 3.2 0.00 0.00 0.00 86 1013.9
20260502064031 16 352 0.0 3.2 0.00 0.00 0.00 86 1013.9
20260502063530 16 0 0.0 1.6 0.00 0.00 0.00 86 1013.9
20260502063057 16 0 0.0 1.6 0.00 0.00 0.00 86 1013.8
20260502062531 16 304 0.0 4.8 0.00 0.00 0.00 86 1013.9
20260502062032 16 275 0.0 4.8 0.00 0.00 0.00 86 1013.9
20260502061547 16 229 0.0 4.8 0.00 0.00 0.00 86 1013.9
20260502061031 16 0 0.0 3.2 0.00 0.00 0.00 86 1013.9
20260502060531 16 0 0.0 4.8 0.00 0.00 0.00 86 1013.9
20260502060107 16 229 0.0 4.8 0.00 0.00 0.00 86 1013.9
20260502055531 16 229 1.6 4.8 0.00 0.00 0.00 86 1014.0
20260502055031 16 215 0.0 4.8 0.00 0.00 0.00 86 1014.0
20260502054549 16 0 0.0 4.8 0.00 0.00 0.00 86 1014.0
20260502054030 16 252 0.0 4.8 0.00 0.00 0.00 86 1013.9
20260502053531 16 0 1.6 4.8 0.00 0.00 0.00 86 1013.9
20260502053100 16 0 0.0 4.8 0.00 0.00 0.00 86 1014.0
20260502052531 16 0 1.6 4.8 0.00 0.00 0.00 86 1014.0
20260502052034 16 289 1.6 3.2 0.00 0.00 0.00 86 1013.9
20260502051559 16 304 0.0 4.8 0.00 0.00 0.00 86 1013.9
20260502051031 16 0 0.0 4.8 0.00 0.00 0.00 86 1013.9
20260502050531 16 284 1.6 3.2 0.00 0.00 0.00 86 1013.8
20260502050056 16 0 0.0 1.6 0.00 0.00 0.00 86 1013.9
20260502045537 16 0 0.0 4.8 0.00 0.00 0.00 86 1013.9
20260502045032 16 0 1.6 4.8 0.00 0.00 0.00 85 1013.8
20260502044546 16 287 0.0 3.2 0.00 0.00 0.00 85 1013.9
20260502044031 16 0 1.6 4.8 0.00 0.00 0.00 85 1013.8
20260502043531 16 0 1.6 4.8 0.00 0.00 0.00 85 1013.7
20260502043044 16 296 1.6 4.8 0.00 0.00 0.00 85 1013.8
20260502042531 16 305 0.0 3.2 0.00 0.00 0.00 85 1013.8
20260502042032 16 0 0.0 1.6 0.00 0.00 0.00 84 1013.7
20260502041545 16 0 0.0 3.2 0.00 0.00 0.00 84 1013.7
20260502041031 16 0 0.0 3.2 0.00 0.00 0.00 84 1013.7
20260502040534 16 0 0.0 3.2 0.00 0.00 0.00 84 1013.7
20260502040048 16 0 0.0 6.4 0.00 0.00 0.00 84 1013.6
20260502035531 16 245 3.2 6.4 0.00 0.00 0.00 84 1013.6
20260502035031 16 260 0.0 4.8 0.00 0.00 0.00 84 1013.5
20260502034548 16 0 0.0 4.8 0.00 0.00 0.00 84 1013.5
20260502034033 16 0 0.0 1.6 0.00 0.00 0.00 84 1013.4
20260502033531 16 0 0.0 4.8 0.00 0.00 0.00 84 1013.3
20260502033052 16 0 0.0 4.8 0.00 0.00 0.00 84 1013.3
20260502032531 16 19 1.6 4.8 0.00 0.00 0.00 84 1013.3
20260502032032 16 321 1.6 4.8 0.00 0.00 0.00 84 1013.2
20260502031545 16 0 0.0 3.2 0.00 0.00 0.00 84 1013.2
20260502031031 16 0 0.0 6.4 0.00 0.00 0.00 84 1013.1
20260502030534 16 276 1.6 6.4 0.00 0.00 0.00 84 1013.2
20260502030045 17 284 1.6 6.4 0.00 0.00 0.00 84 1013.2
20260502025534 17 324 1.6 6.4 0.00 0.00 0.00 84 1013.2
20260502025030 17 0 1.6 6.4 0.00 0.00 0.00 84 1013.1
20260502024544 17 291 3.2 6.4 0.00 0.00 0.00 83 1013.1
20260502024031 17 229 1.6 6.4 0.00 0.00 0.00 83 1013.0
20260502023531 17 306 1.6 4.8 0.00 0.00 0.00 83 1012.9
20260502023040 17 13 0.0 6.4 0.00 0.00 0.00 83 1012.8
20260502022530 17 327 1.6 6.4 0.00 0.00 0.00 83 1012.8
20260502022031 17 259 1.6 8.0 0.00 0.00 0.00 83 1012.6
20260502021545 17 309 1.6 9.7 0.00 0.00 0.00 82 1012.6
20260502021032 17 312 3.2 11.3 0.00 0.00 0.00 82 1012.6
20260502020531 17 246 4.8 11.3 0.00 0.00 0.00 82 1012.5
20260502020045 17 223 6.4 11.3 0.00 0.00 0.00 82 1012.6
20260502015531 17 248 3.2 12.9 0.00 0.00 0.00 81 1012.5
20260502015031 17 279 3.2 12.9 0.00 0.00 0.00 81 1012.5
20260502014544 17 297 6.4 12.9 0.00 0.00 0.00 81 1012.5
20260502014030 17 292 4.8 11.3 0.00 0.00 0.00 81 1012.5
20260502013530 17 271 3.2 11.3 0.00 0.00 0.00 80 1012.5
20260502013054 17 263 4.8 11.3 0.00 0.00 0.00 80 1012.4
20260502012531 17 238 3.2 11.3 0.00 0.00 0.00 80 1012.3
20260502012032 17 288 4.8 11.3 0.00 0.00 0.00 80 1012.3
20260502011602 17 246 1.6 11.3 0.00 0.00 0.00 80 1012.3
20260502011032 18 304 4.8 11.3 0.00 0.00 0.00 79 1012.3
20260502010535 18 313 4.8 16.1 0.00 0.00 0.00 79 1012.3
20260502010047 18 256 3.2 16.1 0.00 0.00 0.00 78 1012.2
20260502005535 18 282 4.8 12.9 0.00 0.00 0.00 78 1012.2
20260502005036 18 315 4.8 12.9 0.00 0.00 0.00 78 1012.2
20260502004557 18 263 6.4 12.9 0.00 0.00 0.00 76 1012.3
20260502004035 19 217 4.8 12.9 0.00 0.00 0.00 76 1012.2
20260502003535 19 263 6.4 12.9 0.00 0.00 0.00 76 1012.2
20260502003045 19 325 4.8 12.9 0.00 0.00 0.00 76 1012.0
20260502002535 19 281 6.4 12.9 0.00 0.00 0.00 76 1012.1
20260502002037 19 231 6.4 12.9 0.00 0.00 0.00 75 1012.1
20260502001544 20 284 6.4 12.9 0.00 0.00 0.00 75 1012.0
20260502001035 20 291 6.4 12.9 0.00 0.00 0.00 75 1012.0
20260502000535 20 256 3.2 12.9 0.00 0.00 0.00 75 1011.9
20260502000051 20 269 4.8 14.5 0.00 0.00 0.00 75 1012.0
20260501235533 20 296 4.8 14.5 0.00 0.00 0.00 75 1011.9
20260501235037 20 272 8.0 14.5 0.00 0.00 0.00 74 1012.0
20260501234549 20 319 4.8 14.5 0.00 0.00 0.00 74 1012.0
20260501234036 20 306 6.4 14.5 0.00 0.00 0.00 73 1012.1
20260501233534 20 218 6.4 14.5 0.00 0.00 0.00 74 1012.0
20260501233046 20 314 6.4 12.9 0.00 0.00 0.00 74 1012.0
20260501232535 20 236 6.4 12.9 0.00 0.00 0.00 73 1012.1
20260501232034 20 279 6.4 12.9 0.00 0.00 0.00 73 1012.0
20260501231551 20 292 6.4 12.9 0.00 0.00 0.00 73 1012.0
20260501231036 20 284 6.4 17.7 0.00 0.00 0.00 73 1012.1
20260501230536 20 321 6.4 17.7 0.00 0.00 0.00 73 1012.2
20260501230050 20 299 4.8 16.1 0.00 0.00 0.00 74 1012.2
20260501225538 20 251 4.8 16.1 0.00 0.00 0.00 73 1012.3
20260501225036 20 313 6.4 17.7 0.00 0.00 0.00 72 1012.3
20260501224552 20 304 6.4 17.7 0.00 0.00 0.00 73 1012.5
20260501224034 20 273 6.4 16.1 0.00 0.00 0.00 72 1012.4
20260501223538 20 209 8.0 19.3 0.00 0.00 0.00 72 1012.5
20260501223044 20 317 8.0 19.3 0.00 0.00 0.00 72 1012.5
20260501222535 20 307 4.8 14.5 0.00 0.00 0.00 71 1012.5
20260501222035 21 273 6.4 14.5 0.00 0.00 0.00 72 1012.7
20260501221605 21 308 6.4 14.5 0.00 0.00 0.00 71 1012.7
20260501221038 21 273 4.8 14.5 0.00 0.00 0.00 71 1012.7
20260501220535 21 307 6.4 14.5 0.00 0.00 0.00 71 1012.7
20260501220052 21 306 6.4 12.9 0.00 0.00 0.00 72 1012.8
20260501215538 20 219 4.8 14.5 0.00 0.00 0.00 73 1012.9
20260501215032 20 103 6.4 16.1 0.00 0.00 0.00 73 1012.9
20260501214552 20 279 8.0 16.1 0.00 0.00 0.00 72 1013.0
20260501214034 20 280 4.8 16.1 0.00 0.00 0.00 73 1013.1
20260501213532 20 284 8.0 16.1 0.00 0.00 0.00 73 1013.2
20260501213050 20 268 8.0 16.1 0.00 0.00 0.00 73 1013.2
20260501212531 20 309 8.0 16.1 0.00 0.00 0.00 73 1013.2
20260501212032 20 286 6.4 16.1 0.00 0.00 0.00 73 1013.2
20260501211548 20 239 8.0 16.1 0.00 0.00 0.00 73 1013.3
20260501211031 20 317 8.0 16.1 0.00 0.00 0.00 73 1013.4
20260501210532 20 262 8.0 22.5 0.00 0.00 0.00 73 1013.3
20260501210051 20 325 8.0 22.5 0.00 0.00 0.00 72 1013.3
20260501205532 20 315 9.7 22.5 0.00 0.00 0.00 72 1013.3
20260501205032 20 289 8.0 14.5 0.00 0.00 0.00 72 1013.2
20260501204553 20 277 6.4 16.1 0.00 0.00 0.00 73 1013.3
20260501204031 20 302 6.4 16.1 0.00 0.00 0.00 72 1013.3
20260501203531 20 263 6.4 14.5 0.00 0.00 0.00 71 1013.2
20260501203047 20 246 6.4 16.1 0.00 0.00 0.00 71 1013.2
20260501202533 20 283 8.0 16.1 0.00 0.00 0.00 72 1013.2